Regional Weather Roundup
Issued by NWS State College, PA

Home | Current Version | Previous Version | Text Only | Print | Product List | Glossary Off
Versions: 1 2 3 4 5 6 7 8 9 10 11 12 13 14 15 16 17 18 19 20 21 22 23 24 25 26 27 28 29 30 31 32 33 34 35 36 37 38 39 40 41 42 43 44 45 46 47 48 49 50

938
ASUS41 KCTP 222003
RWRCTP

REGIONAL WEATHER ROUNDUP
NATIONAL WEATHER SERVICE STATE COLLEGE PA
400 PM EDT SUN OCT 22 2017

Note: "fair" indicates few or no clouds below 12,000 feet with no
significant weather and/or obstructions to visibility.

* = STATION THAT DOES NOT REPORT PRECIPITATION /E.G. RAIN...SNOW...ETC/
    THUNDER OR FOG.

PAZ002>004-007>009-013>016-020>023-029>032-222100-
WESTERN PENNSYLVANIA

CITY           SKY/WX    TMP DP  RH WIND       PRES   REMARKS
ERIE           SUNNY     78  50  37 S13       30.16F
MEADVILLE      SUNNY     73  50  44 S8G16     30.20F
FRANKLIN*      SUNNY     73  51  46 S9        30.22F
NEW CASTLE     FAIR      78  51  38 SE8       30.20F
BEAVER COUNTY  NOT AVBL
BUTLER*        MOSUNNY   74  52  46 S7        30.22F
PITTSBURGH INT PTSUNNY   76  48  37 S5        30.20F
PITTSBURGH     SUNNY     76  45  33 S10       30.20F
INDIANA*       SUNNY     75  52  43 S8        30.26S
LATROBE        SUNNY     75  52  43 CALM      30.23F
WASHINGTON CO* SUNNY     76  47  35 SE9       30.23F
$$

PAZ004>006-010>012-017>019-024>028-033>037-041-042-045-046-049>053-222100-
CENTRAL PENNSYLVANIA

CITY           SKY/WX    TMP DP  RH WIND       PRES   REMARKS
BRADFORD       CLOUDY    72  45  37 S13       30.25F
DUBOIS         CLOUDY    73  49  42 SE8       30.25S
CLEARFIELD     CLOUDY    71  52  50 VRB6      30.27S
JOHNSTOWN      SUNNY     70  50  49 S14       30.28F
ALTOONA        SUNNY     73  52  47 SE12      30.29S
STATE COLLEGE  SUNNY     72  52  49 S9G17     30.28F
WILLIAMSPORT   SUNNY     74  52  46 VRB5      30.27F
SELINSGROVE    SUNNY     72  54  53 S6        30.30F
FT INDIANTOWN  NOT AVBL
CAPITAL CITY   MOSUNNY   77  45  32 S10       30.30F
HARRISBURG     MOSUNNY   77  48  35 SE6       30.29F
YORK           SUNNY     73  49  42 SE9       30.31F
$$

PAZ038>040-043-044-047-048-054-055-060>062-067>071-222100-
EASTERN PENNSYLVANIA

CITY           SKY/WX    TMP DP  RH WIND       PRES   REMARKS
SCRANTON       MOSUNNY   75  42  30 VRB7      30.31F
MOUNT POCONO   SUNNY     66  43  43 S7G17     30.37S
ALLENTOWN      SUNNY     76  45  33 S9        30.34S
QUAKERTOWN*    CLEAR     73  45  35 S8        30.36S
READING        SUNNY     74  46  36 S12       30.32S
LANCASTER      SUNNY     73  43  33 S10       30.33S
COATESVILLE    CLEAR     72  46  40 VRB6G12   30.36S
POTTSTOWN      SUNNY     73  44  35 VRB5      30.36S
BLUE BELL      SUNNY     72  45  37 SE5       30.36S
DOYLESTOWN     SUNNY     72  43  35 S8        30.35S
WILLOW GROVE   NOT AVBL
NORTH PHILA    SUNNY     76  47  35 S7        30.36F
PHILADELPHIA   PTSUNNY   75  48  38 S7        30.34F
$$




USA.gov is the U.S. government's official web portal to all federal, state and local government web resources and services.